Location: Menard
(37.9101°N, 89.8398°W)
Time: 02:13:55
(UTC+00:00)

ACS3 Solar Sail - Pass Details

Date: 16 October 2024
Orbit: 961 x 1022 km, 97.5° (Epoch: 03 November)

Event Time Altitude Azimuth Distance (km) Brightness Sun altitude
Exits shadow 01:24:49 51° 67° (ENE) 1,278 2.0 -25.2°
Drops below altitude 10° 01:30:49 10° 359° (N) 2,832 4.3 -26.3°
Sets 01:33:23 0° 355° (N) 3,786 5.1 -26.8°
